Location: Newark
(51.5033°N, 0.1199°W)
Time: 11:47:53
(UTC+00:00)

PicSat - Pass Details

Date: 27 September 2019
Orbit: 486 x 499 km, 97.5° (Epoch: 18 October)

Event Time Altitude Azimuth Distance (km) Brightness Sun altitude
Exits shadow 20:30:40 12° 20° (NNE) 1,572 ? -25.0°
Drops below altitude 10° 20:31:09 10° 15° (NNE) 1,718 ? -25.1°
Sets 20:33:37 0° 358° (N) 2,607 ? -25.4°
